Simultaneous Nadir Overpasses (SNOs) Predictions

Prediction of SNOs between GOES-17 and NOAA-19 Satellite Orbit:

Table of predicted SNOs for the next 14.0 days since TLE Epoch: 3/27/2020
Index Date Time (GOES-17) GOES-17 Lat,Lon NOAA-19 Lat,Lon Distance(km) Time Diff (sec)
1 03/28/2020 03:02:10 0.00,-137.21 -0.60,-139.76 291.12 80
2 03/29/2020 02:47:50 0.01,-137.20 0.10,-136.91 33.79 80
3 03/30/2020 02:36:10 0.02,-137.20 0.74,-134.06 358.34 80
4 04/01/2020 14:59:53 -0.02,-137.20 0.41,-139.03 209.89 80
5 04/02/2020 14:45:33 -0.02,-137.18 -0.28,-136.19 114.16 80
6 04/03/2020 14:33:53 -0.01,-137.17 -0.91,-133.33 438.07 80
7 04/05/2020 03:09:13 -0.01,-137.12 -0.96,-141.14 459.31 80
8 04/06/2020 02:57:33 -0.01,-137.11 -0.27,-138.30 135.66 80
9 04/07/2020 02:43:13 -0.01,-137.09 0.37,-135.44 187.84 80
10 04/09/2020 15:04:54 0.00,-137.06 0.81,-140.41 383.53 42




NCC Satellite Simultaneous Nadir Overpasses (SNOs) Prediction Service
